Torna al catalogo

NOAA 17 DEB

AttivoPO
NORAD 48611·DEBRIS·🇺🇸 United States

Lanciato Jun 24, 2002 da Vandenberg Space Force Base

Loading…

Prossimi Passaggi (prossime 24 ore)

TLE

AggiornatoSource: Space-Track

Epoca: Sep 13, 2026, 05:35 UTC

1 48611U 02032AC  26256.23299689  .00005411  00000-0  11257-2 0  9995
2 48611  98.7413 253.5931 0004429 345.4633  14.6437 14.60478688284369

Traccia NOAA 17 DEB in tempo reale con AllMySat

Download on the App Store